STARLINK-1454 (45671 NORAD) Tracking and Keplerian Element Data

This shows tracking and keplerian element data for the satellite.

Feedback or suggestion? Click here.




ElementValue
Catalog45671
NameSTARLINK-1454
Epoch Orbit1059
Epoch Day218.91667824
Epoch Year2020
RAAN232.4948
Inclination52.9992
Eccentricity0.0001358
Argument of Perigee95.6381
Mean Anonmoly166.9314
Mean Motion15.05548997
Decay Rate0.00040315
L11 45671U 20035Q 20218.91667824 .00040315 00000-0 27726-2 0 9998
L22 45671 52.9992 232.4948 0001358 95.6381 166.9314 15.05548997 10590

Live tracking and technical data element details for STARLINK-1454 (NORAD 45671). STARLINK-1454 can be tracked NOW for your location showing map with azimuth and elevation plus other details from your city location.

Track the satellite on the map from your city or location and see movement details for azimuth, elevation, latitude, longitude, range, height, and movement on the map or in text.







IsCatalogInMostPopularTable: catalog: 45671, numindb: 12
Update: records affected: 1



GetName: 45671 STARLINK-1454

Hit Count: updated at: Sat, 08 Aug 2020 00:22:58 GMT